Regional Weather Roundup
Issued by NWS

Home | Current Version | Previous Version | Graphics & Text | Print | Product List | Glossary On
Versions: 1 2 3 4 5 6 7 8 9 10 11 12 13 14 15 16 17 18 19 20 21 22 23 24 25 26 27 28 29 30 31 32 33 34 35 36 37 38 39 40 41 42 43 44 45 46 47 48 49 50
000
ASUS43 KDMX 230407
RWRIA

WEATHER ROUNDUP FOR IOWA
NATIONAL WEATHER SERVICE DES MOINES IA
1100 PM CDT FRI MAY 22 2015

NOTE: "FAIR" INDICATES FEW OR NO CLOUDS BELOW 12,000 FEET WITH NO
SIGNIFICANT WEATHER AND/OR OBSTRUCTIONS TO VISIBILITY.

* - THESE STATIONS ARE NOT NWS STATIONS...THUS NOT UNDER NWS
QUALITY CONTROL.  THEY ALSO DO NOT REPORT WEATHER SUCH
AS PRECIPITATION OR FOG.

IAZ001>003-012>014-020>022-031>034-043>046-230500-
   NORTHWEST IOWA

CITY           SKY/WX    TMP DP  RH WIND       PRES   REMARKS
CARROLL *      CLOUDY    61  45  55 S5        30.21S
CHEROKEE *     CLOUDY    61  45  55 S6        30.20R
DENISON *      CLOUDY    57  50  77 SE6       30.19S
LE MARS *      CLOUDY    61  45  55 S7        30.21R
ORANGE CITY *  CLOUDY    59  41  51 S7        30.20S
SHELDON *      CLOUDY    59  43  55 CALM      30.20S
SIOUX CITY     CLOUDY    59  46  62 SE7       30.20R
SPENCER        CLOUDY    58  45  62 W3        30.22R
STORM LAKE *   CLOUDY    59  46  63 S8        30.22S
$$

IAZ055>058-069>071-079>083-090>094-230500-
   SOUTHWEST IOWA

CITY           SKY/WX    TMP DP  RH WIND       PRES   REMARKS
ATLANTIC *     CLOUDY    61  46  59 S5        30.21S
AUDUBON *      CLOUDY    57  52  82 CALM      30.23R
CLARINDA *     MOCLDY    55  48  76 CALM      30.23S
COUNCIL BLFS * CLOUDY    57  52  82 SE7       30.21R
CRESTON *      CLEAR     57  50  77 SE6       30.22F
HARLAN  *      MOCLDY    59  48  67 CALM      30.24S
LAMONI           N/A     60  52  74 SE5       30.23R
RED OAK *      CLOUDY    59  50  72 S3        30.21S
SHENANDOAH *   CLOUDY    61  50  67 SE7       30.22R
$$

IAZ047>049-059>061-072>074-084-230500-
   CENTRAL IOWA

CITY           SKY/WX    TMP DP  RH WIND       PRES   REMARKS
AMES           CLOUDY    60  47  61 NW3       30.22R
ANKENY *       MOCLDY    61  48  63 CALM      30.22S
CHARITON *     CLOUDY    57  50  77 S8        30.23S
DES MOINES     CLOUDY    64  46  52 CALM      30.22S
GRINNELL*      CLOUDY    63  48  59 SW6       30.24R
KNOXVILLE *    CLOUDY    61  48  63 CALM      30.21S
MARSHALLTOWN   CLOUDY    62  47  57 W7        30.22R
PELLA *        CLOUDY    61  54  77 CALM      30.23S
PERRY *        CLOUDY    59  48  67 SE3       30.22S
$$

IAZ004>006-015-016-023>025-035-036-230500-
   NORTH CENTRAL IOWA

CITY           SKY/WX    TMP DP  RH WIND       PRES   REMARKS
ALGONA *       CLEAR     61  46  59 W8        30.22S
CLARION *      CLEAR     59  46  63 SW8       30.23R
ESTHERVILLE    PTCLDY    59  42  53 W8        30.22R
FORT DODGE *   CLOUDY    57  46  67 CALM      30.23S
MASON CITY     CLOUDY    59  42  53 S5        30.21S
FOREST CITY *  CLEAR     54  43  66 SW7       30.21R HAZE
IOWA FALLS *     N/A     61  45  55 W9        30.23R
$$

IAZ007>011-017>019-026>030-037>042-050>054-066-230500-
   NORTHEAST IOWA

CITY           SKY/WX    TMP DP  RH WIND       PRES   REMARKS
CEDAR RAPIDS   CLOUDY    61  46  57 S3        30.21S
CHARLES CITY * PTCLDY    64  36  34 SE6       30.21S
CLINTON *      MOCLDY    57  46  67 E9        30.26R
DECORAH *      PTCLDY    61  41  48 E5        30.21S
DUBUQUE        CLOUDY    60  44  55 SE8       30.24R
MONTICELLO *   CLEAR     59  46  63 CALM      30.22S
OELWEIN *      PTCLDY    61  45  55 S6        30.22S
WATERLOO       CLOUDY    58  46  64 CALM      30.20S
$$

IAZ064-065-067-068-078-230500-
   EAST CENTRAL IOWA

CITY           SKY/WX    TMP DP  RH WIND       PRES   REMARKS
DAVENPORT      CLOUDY    62  43  49 SE5       30.24R
IOWA CITY      CLOUDY    62  50  64 CALM      30.24R
MT. PLEASANT * CLOUDY    63  54  72 W7        30.24S
MUSCATINE *    MOCLDY    64  52  63 CALM      30.23S
QUAD CITIES    CLOUDY    59  48  67 SE3       30.22S
$$

IAZ062-063-075>077-085>089-095>099-230500-
   SOUTHEAST IOWA

CITY           SKY/WX    TMP DP  RH WIND       PRES   REMARKS
BURLINGTON     CLOUDY    64  54  69 W5        30.23S
FAIRFIELD *    CLOUDY    63  52  67 S5        30.24S
FORT MADISON * CLOUDY    63  55  77 CALM      30.25F
KEOKUK *       MOCLDY    61  55  82 CALM      30.24S
OSKALOOSA *    CLOUDY    61  50  67 S6        30.23S
CENTERVILLE *  CLEAR     54  54 100 S5        30.25R
OTTUMWA        CLOUDY    61  52  72 S6        30.23R
WASHINGTON *   CLOUDY    63  52  67 SW7       30.25R
$$

ABBREVIATIONS USED IN REMARKS
   TC - TEMPERATURES IN CELSIUS
  WCI - WIND CHILL INDEX
   HX - HEAT INDEX
  VSB - VISIBILITY
$$



USA.gov is the U.S. government's official web portal to all federal, state and local government web resources and services.